AirNav   Air Wisconsin pilot careers
 
 456 users online  

13K Lt. William M. Milliken Airport
Eureka, Kansas, USA

GOING TO EUREKA?


FAA INFORMATION EFFECTIVE 06 DECEMBER 2018

Location

FAA Identifier: 13K
Lat/Long: 37-51-05.8000N / 096-17-31.3000W
37-51.096667N / 096-17.521667W
37.8516111 / -96.2920278
(estimated)
Elevation: 1208.1 ft. / 368.2 m (surveyed)
Variation: 06E (1985)
From city: 2 miles N of EUREKA, KS
Time zone: UTC -6 (UTC -5 during Daylight Saving Time)
Zip code: 67045

Airport Operations

Airport use: Open to the public
Activation date: 07/1959
Control tower: no
ARTCC: KANSAS CITY CENTER
FSS: WICHITA FLIGHT SERVICE STATION
NOTAMs facility: ICT (NOTAM-D service available)
Attendance: 0800-1700
Wind indicator: lighted, WIND INDICATOR IS FADED.
Segmented circle: yes
Beacon: white-green (lighted land airport)
Operates sunset to sunrise.

Airport Communications

CTAF/UNICOM: 122.8
WX AWOS-3: 120.975 (620-583-5442)
  • APCH/DEP SERVICE PROVIDED BY KANSAS CITY ARTCC ON FREQS 120.2/323.2 (EMPORIA RCAG).

Nearby radio navigation aids

VOR radial/distance  VOR name  Freq  Var
EMPr187/27.4EMPORIA VORTAC112.8008E
CNUr287/35.8CHANUTE VOR/DME109.2005E

 
NDB name  Hdg/Dist  Freq  Var  ID
BOYD220/38.124505EUKL ..- -.- .-..

Airport Services

Fuel available: 100LL MOGAS
Parking: tiedowns
Airframe service: MAJOR
Powerplant service: MAJOR
Bottled oxygen: NONE
Bulk oxygen: NONE

Runway Information

Runway 18/36

Dimensions: 3504 x 60 ft. / 1068 x 18 m
Surface: asphalt, in fair condition
Weight bearing capacity: 
Single wheel: 8.0
Runway edge lights: low intensity
Runway edge markings: NRS ARE FADED DUE TO AGE AND WEATHER.
Gradient: N
RUNWAY 18  RUNWAY 36
Latitude: 37-51.323765N37-50.756317N
Longitude: 096-17.419327W096-17.552978W
Elevation: 1206.4 ft.1195.6 ft.
Gradient: 0.3%0.3% UP
Traffic pattern: leftleft
Runway heading: 185 magnetic, 191 true005 magnetic, 011 true
Markings: numbers only, in poor conditionnumbers only, in poor condition
Visual slope indicator: 2-light PAPI on left (3.00 degrees glide path)2-light PAPI on left (3.00 degrees glide path)
Runway end identifier lights: nono
Touchdown point: yes, no lightsyes, no lights

Runway 8/26

Dimensions: 2146 x 55 ft. / 654 x 17 m
Surface: turf, in fair condition
Runway edge markings: WHITE TIRES MARK RY END.
Gradient: E
RUNWAY 8  RUNWAY 26
Latitude: 37-51.182243N37-51.197352N
Longitude: 096-17.802540W096-17.356937W
Elevation: 1194.6 ft.1208.1 ft.
Gradient: 0.6% UP0.6%
Traffic pattern: leftleft
Runway heading: 081 magnetic, 087 true261 magnetic, 267 true
Runway end identifier lights: nono
Touchdown point: yes, no lightsyes, no lights
Obstructions: 4 ft. fence, marked, 76 ft. from runway, 19:1 slope to clear
DELINEATED WITH WHITE PAINTED TIRES.
23 ft. pline, 502 ft. from runway, 21:1 slope to clear

Airport Ownership and Management from official FAA records

Ownership: Publicly-owned
Owner: CITY OF EUREKA
MEMORIAL HALL
EUREKA, KS 67045
Phone 620-583-6511
Manager: LARRY DUTTON
1667 P ROAD
EUREKA, KS 67045
Phone 620-583-7732

Airport Operational Statistics

Aircraft based on the field: 14
Single engine airplanes: 13
Helicopters: 1
    
Aircraft operations: avg 94/week *
80% local general aviation
20% transient general aviation
* for 12-month period ending 01 September 2017

Additional Remarks

A58-36 GROUND DROPS DOWN ABRUPTLY 85 FT FM END OF RY.
WILDLIFE ON & INVOF ARPT.
RY 18/36 NSTD LIRL; NON-BREAKABLE COUPLINGS & VARIES IN ELEV OVR 14 INCHES. RY 18 THLD LGTS ON GND; RY 36 NSTD THLD LGTS.

Instrument Procedures

NOTE: All procedures below are presented as PDF files. If you need a reader for these files, you should download the free Adobe Reader.

NOT FOR NAVIGATION. Please procure official charts for flight.
FAA instrument procedures published for use from 6 December 2018 at 0901Z to 3 January 2019 at 0900Z.

 
IAPs - Instrument Approach Procedures
RNAV (GPS) RWY 18   download (185KB)
VOR/DME RWY 18   download (191KB)
NOTE: Special Take-Off Minimums/Departure Procedures apply   download (213KB)

Other nearby airports with instrument procedures:

KEQA - El Dorado/Captain Jack Thomas Memorial Airport (25 nm W)
KEMP - Emporia Municipal Airport (29 nm N)
KUKL - Coffey County Airport (38 nm NE)
3AU - Augusta Municipal Airport (39 nm W)
1K1 - Lloyd Stearman Field Airport (39 nm W)
 
Loc | Ops | Rwys | IFR | FBO | Links
Com | Nav | Svcs | Stats | Notes

Kansas City Aviation Department
 
Area around 13K (Lt. William M. Milliken Airport)
 
Road maps at: MapQuest Bing Google
 
Aerial photo
WARNING: Photo may not be current or correct
Aerial photo of 13K (Lt. William M. Milliken Airport)
Photo by David Newcomer
Photo taken 17-Oct-2015
from 4,500 altitude looking southeast.

Do you have a better or more recent aerial photo of Lt. William M. Milliken Airport that you would like to share? If so, please send us your photo.

 
Sectional chart

 
Airport distance calculator
Flying to Lt. William M. Milliken Airport? Find the distance to fly.

From to 13K

Sunrise and sunset
Times for 19-Dec-2018
 Local
(UTC-6)
 Zulu
(UTC)
Morning civil twilight07:0813:08
Sunrise07:3713:37
Sunset17:0823:08
Evening civil twilight17:3723:37

Current date and time
Zulu (UTC)  19-Dec-2018 06:24:24
Local (UTC-6)  19-Dec-2018 00:24:24
 
METAR
KEQA 
25nm W 
190555Z AUTO 18009KT 10SM CLR 07/05 A2988 RMK AO2
KEMP 
29nm N 
190553Z AUTO 17010KT 6SM BR CLR 06/06 A2987 RMK AO2 SLP122 T00610056 10089 20061 401281028 58009
K3AU 
39nm W 
190555Z AUTO 18006KT 10SM CLR 05/04 A2989 RMK AO2
K1K1 
39nm W 
190555Z AUTO 18005KT 10SM CLR 05/04 A2988 RMK AO2 T00530039 10082 20048 401211007
KCNU 
40nm E 
190552Z AUTO 19008KT 10SM CLR 07/06 A2993 RMK AO2 SLP134 T00670056 10094 20067 401441017 56008
KK88 
43nm E 
190555Z AUTO 00000KT 10SM CLR 06/05 A2993 RMK AO1 T00620051 10090 20061
KAAO 
44nm W 
190554Z AUTO 18008KT 10SM CLR 05/04 A2988 RMK AO2 SLP122 T00500044 10083 20044 401221011 58005
KBEC 
45nm W 
190555Z AUTO 18005KT 10SM CLR 04/03 A2988 RMK AO2 T00420032 10081 20032 401181016
KEWK 
47nm W 
190556Z AUTO 18008KT 10SM CLR 03/02 A2987 RMK AO2 SLP116 T00330022 10078 20033 58007
KIDP 
48nm SE 
190555Z AUTO 19007KT 10SM CLR 04/04 A2993 RMK AO2 T00430035 10098 20042
TAF
KCNU 
40nm E 
190521Z 1906/2006 19008KT P6SM SCT120 BKN250 FM191200 20010KT 5SM BR SCT009 BKN012 TEMPO 1912/1915 2SM BR BKN009 FM191500 20011KT P6SM OVC015 FM191800 21013G19KT P6SM SCT015 OVC035 FM192300 24009KT P6SM OVC050 FM200000 30013G19KT P6SM OVC060
KIAB 
48nm W 
190200Z 1902/2008 19009KT 9999 BKN110 OVC150 QNH2983INS BECMG 1918/1919 31010G20KT 9000 -DZ OVC050 QNH2979INS BECMG 1923/1924 30009KT 9000 -DZ OVC080 QNH2982INS BECMG 2002/2003 31012KT 9999 NSW OVC120 QNH2986INS TX11/1920Z TN04/1911Z
NOTAMs
Click for the latest NOTAMs
NOTAMs are issued by the DoD/FAA and will open in a separate window not controlled by AirNav.

 

 
 

FBO, Fuel Providers, and Aircraft Ground Support

  
 Business Name 
 
 Contact 
 
 Services / Description 
 
Fuel Prices
 
Comments
  
Captain D Aviation 620-583-7732
no information available

If you are affiliated with Captain D Aviation and would like to show here your services, contact info, web link, logo, and more, click here
100LL Mogas
FS $4.69 $3.31 
 Updated 11-Dec-2018
 
   write
FS=Full service
Update Fuel Prices
 

Would you like to see your business listed on this page?

 If your business provides an interesting product or service to pilots, flight crews, aircraft, or users of the Lt. William M. Milliken Airport, you should consider listing it here.  To start the listing process, click on the button below
 
Add a business
 

Other Pages about Lt. William M. Milliken Airport

Update a link
 
Copyright © AirNav, LLC. All rights reserved. Privacy Policy  Contact